Wind_Speed
20 21 22 22 20 19 19 19 18 19 19 20 20 20 21 22 23 22 22 22 23 22 22 22 22 23 23 24 23 22 22 22 22 23 24 24 25 26 26 26 26 27 28
20 20 20 19 18 17 17 17 17 18 19 19 19 20 21 21 21 21 22 22 23 23 23 22 22 22 23 23 23 23 23 23 23 23 23 24 25 26 26 26 27 27 27
18 18 17 18 17 17 16 16 17 18 18 19 19 20 20 20 20 20 22 23 23 23 23 22 22 23 23 23 23 23 23 23 24 24 24 25 25 26 27 26 26 25 26
16 16 17 16 16 16 16 16 17 17 18 19 20 20 20 20 20 21 22 23 22 22 22 22 23 23 23 24 24 23 23 23 24 24 24 24 25 25 26 27 25 25 26
15 15 16 15 15 15 15 16 17 17 17 19 20 20 20 20 20 21 22 22 21 22 22 23 23 24 24 24 23 23 23 23 23 23 23 23 24 25 26 26 25 26 26
13 14 15 15 15 15 15 16 17 17 17 18 19 19 19 20 21 21 21 21 21 22 22 23 24 24 24 23 23 22 22 22 22 23 23 24 24 25 25 25 25 25 25
13 13 14 14 13 13 15 16 16 16 17 18 19 18 19 20 20 21 21 21 22 22 23 24 24 24 23 23 22 22 22 22 23 23 23 24 24 24 24 24 24 24 24
12 13 13 13 12 13 14 15 16 17 18 18 18 18 18 19 20 21 21 22 23 23 23 24 24 23 22 21 21 22 23 23 23 23 23 23 23 24 24 24 25 24 23
12 12 12 13 13 14 15 15 16 17 17 17 17 18 18 19 20 21 22 22 23 23 23 24 24 23 22 22 23 23 23 23 23 23 23 24 24 24 24 23 23 23 22
11 11 11 12 13 14 15 15 16 16 16 17 18 19 19 20 21 22 22 22 23 23 23 24 23 23 23 23 23 23 22 22 23 23 23 23 23 23 23 22 22 22 22
11 11 12 12 13 14 15 16 16 16 16 17 18 19 20 20 21 21 22 22 22 23 23 23 23 23 24 24 23 23 22 22 22 22 21 22 23 23 22 22 22 22 21
11 11 12 13 14 15 15 16 16 16 17 18 18 19 20 21 21 21 22 22 22 22 23 23 23 23 24 23 23 23 22 21 21 20 20 20 21 20 20 20 20 20 20
11 12 13 13 14 14 15 16 16 16 17 18 19 20 20 21 21 21 22 23 23 23 23 24 24 24 24 23 23 23 22 21 20 19 20 20 19 19 19 18 19 19 20
12 12 13 14 14 14 14 15 16 17 17 18 20 20 21 20 21 22 22 23 23 24 24 25 25 24 24 23 23 23 22 21 20 20 19 19 18 18 18 18 18 18 19
11 12 13 13 13 14 14 15 16 17 18 19 20 21 21 21 22 22 23 23 23 24 24 25 25 24 23 23 22 22 21 21 20 19 19 18 18 18 18 18 18 18 19
11 12 12 13 13 13 14 15 16 17 17 18 20 20 21 21 22 23 23 23 23 24 24 25 25 24 23 22 22 21 21 20 20 19 19 18 18 18 17 18 18 18 18
11 12 13 13 13 13 13 15 15 16 17 18 19 20 21 22 23 23 23 23 24 25 24 24 24 23 22 22 21 21 20 20 19 19 19 18 18 17 17 17 17 17 18
11 12 12 13 13 14 14 15 16 16 17 18 19 20 21 22 23 23 23 23 24 25 24 24 24 23 22 22 22 22 21 21 20 19 19 18 17 17 17 17 17 17 17
11 12 12 12 13 14 14 15 16 17 18 19 19 20 21 22 23 24 24 24 25 25 24 24 24 23 23 23 23 22 22 21 21 20 19 18 18 17 17 17 17 17 17
10 11 12 12 13 14 14 15 16 17 18 19 20 21 21 23 24 24 24 25 25 25 24 24 23 23 23 23 23 23 22 21 21 21 19 19 18 18 17 17 17 17 18
10 11 12 13 13 14 14 15 16 17 18 19 20 21 23 24 25 25 25 25 25 25 23 23 23 23 23 24 24 24 23 22 21 21 20 19 19 18 17 17 17 17 17
9 10 11 12 13 13 14 15 16 18 19 20 20 22 23 24 25 25 25 25 25 25 24 24 24 23 23 24 24 24 24 22 22 21 21 20 19 18 17 17 17 18 18
9 10 11 12 13 14 15 16 17 18 19 20 21 22 24 25 25 25 26 26 25 25 24 24 24 24 24 23 24 25 25 23 22 22 21 20 19 18 17 17 18 18 17
10 10 11 12 13 14 15 16 17 18 19 20 21 22 24 25 25 25 25 25 24 24 24 23 24 23 24 24 24 25 25 24 23 22 21 20 19 18 17 18 18 18 18
10 11 12 12 13 14 15 16 17 18 19 20 22 23 24 24 25 25 25 24 24 23 23 23 24 24 23 23 24 25 26 25 23 22 22 21 20 19 18 18 18 18 19
10 10 11 12 13 14 15 16 17 18 19 20 22 23 24 24 24 24 25 24 24 23 24 24 24 24 24 24 25 26 26 26 24 23 22 22 21 20 19 18 18 19 18
Wind_Direction
292 294 295 297 301 298 297 298 298 299 303 304 305 307 308 309 309 308 305 304 303 304 303 302 299 298 296 294 295 294 292 290 288 283 278 276 275 272 272 270 269 267 264
294 294 296 298 301 300 301 300 301 302 304 305 306 309 310 311 312 312 308 307 307 306 305 305 302 299 297 297 296 294 293 293 291 288 283 278 276 273 273 271 268 266 264
296 298 298 298 299 300 300 300 303 304 306 307 310 311 312 312 313 313 313 312 311 309 307 305 304 302 298 298 296 295 294 294 293 291 286 281 279 275 273 272 270 265 263
299 302 301 297 299 300 299 302 304 305 307 309 312 314 315 314 314 315 317 315 312 312 309 306 305 305 302 299 298 297 295 294 293 291 288 284 282 280 276 274 271 268 265
304 305 306 300 300 301 302 305 305 306 309 311 312 314 315 314 316 317 317 316 312 311 310 308 306 305 304 301 299 297 295 294 292 291 288 285 285 281 277 275 272 270 267
308 311 310 307 305 307 309 308 308 308 310 311 313 314 315 316 318 319 317 315 314 313 312 311 309 307 307 303 301 299 297 294 292 290 289 287 286 285 280 276 273 270 268
314 314 313 312 309 310 311 311 311 311 312 312 314 317 318 318 318 319 319 316 316 315 314 314 312 309 309 307 304 301 299 297 294 292 289 289 287 286 283 279 276 275 272
318 318 318 317 314 314 314 314 314 315 315 316 317 318 320 322 321 320 319 318 317 316 315 315 315 314 313 310 307 305 301 299 297 294 290 289 289 287 285 282 280 278 276
325 325 322 322 320 322 321 320 319 319 320 321 321 322 323 322 322 320 320 319 318 316 315 315 316 316 314 311 309 307 303 299 297 295 292 290 289 287 286 285 281 277 277
329 330 331 329 326 324 325 325 324 324 324 325 325 326 325 324 323 323 324 323 321 320 319 319 318 316 318 316 313 309 304 301 299 296 293 291 291 289 285 283 281 278 277
327 330 331 332 332 331 329 326 326 327 329 329 328 328 328 327 326 327 327 326 324 323 323 322 320 317 318 318 316 312 308 305 302 298 296 293 292 290 285 282 281 279 277
324 327 330 332 332 332 331 329 329 331 332 331 330 329 330 331 331 330 329 328 327 325 325 323 321 319 320 321 318 316 312 308 304 301 299 297 296 293 288 284 283 281 279
325 328 330 331 331 332 331 330 330 331 331 332 332 332 332 332 332 331 330 330 329 328 327 326 323 322 322 321 319 317 315 311 309 305 301 301 300 296 292 289 288 286 281
326 328 329 331 331 331 330 330 330 331 332 333 335 335 335 335 334 333 333 332 332 331 330 330 327 324 322 320 320 319 317 315 311 311 307 305 304 300 296 293 291 289 286
327 328 328 330 332 333 332 331 333 335 336 336 337 337 337 336 335 335 336 335 333 334 335 334 333 330 327 325 324 324 322 320 317 314 312 311 309 305 301 297 294 291 288
328 329 331 333 333 334 335 335 336 337 338 339 340 340 340 339 338 338 338 337 336 335 335 335 334 333 329 328 327 325 323 321 318 316 313 310 309 307 304 299 295 294 293
328 332 335 335 336 336 336 336 336 338 339 340 342 342 342 342 341 340 340 340 340 339 338 336 334 334 332 329 328 328 327 324 321 319 318 316 314 310 305 302 299 296 296
328 332 334 336 336 336 337 336 337 340 341 342 343 342 342 343 343 342 342 342 341 341 340 339 339 338 335 332 331 331 330 329 325 323 322 321 320 316 309 305 303 300 298
329 331 332 334 335 336 337 337 339 340 341 343 344 344 343 343 344 342 341 342 342 342 341 341 342 341 339 337 336 335 333 330 327 325 324 323 321 319 315 310 307 306 302
323 327 330 333 336 337 337 338 339 341 341 342 343 343 343 343 344 343 342 341 342 342 343 343 342 342 341 341 340 337 334 331 329 326 325 324 323 321 317 313 309 306 305
321 325 328 332 336 337 337 337 339 340 341 341 342 343 344 344 344 343 342 342 341 341 341 343 344 343 343 342 341 339 337 334 331 329 327 325 324 322 320 319 315 311 310
319 323 327 331 334 335 336 338 339 340 341 342 342 343 343 344 345 344 343 343 343 344 343 345 346 345 345 344 343 343 340 339 336 332 330 329 327 324 323 321 319 316 314
315 321 326 329 331 333 335 337 339 340 342 342 342 342 343 344 344 344 344 344 345 345 345 346 346 345 345 345 344 344 343 342 341 338 334 332 330 328 326 324 322 321 319
313 318 323 326 330 333 335 337 338 340 341 342 342 342 344 345 345 345 345 345 345 346 345 346 346 346 346 345 345 345 344 343 343 341 339 336 333 331 328 327 325 323 321
314 318 322 324 328 331 333 335 337 339 341 342 343 343 344 345 345 345 345 344 345 345 345 347 347 347 346 346 345 345 344 343 343 342 341 338 335 333 331 328 325 324 323
310 315 321 324 327 329 331 333 335 338 340 342 343 344 344 345 345 346 346 345 345 345 345 346 347 347 346 345 345 344 343 344 344 344 343 341 338 335 333 330 327 324 322
Height
5775 5773 5771 5769 5765 5764 5763 5761 5759 5757 5755 5752 5750 5747 5744 5741 5738 5734 5731 5729 5726 5723 5720 5718 5715 5712 5710 5707 5704 5701 5699 5697 5695 5694 5692 5690 5689 5688 5687 5686 5685 5685 5684
5769 5767 5765 5764 5762 5760 5758 5756 5754 5752 5749 5747 5744 5742 5739 5736 5732 5729 5726 5723 5720 5717 5714 5712 5709 5706 5703 5701 5698 5695 5693 5690 5688 5686 5685 5683 5681 5680 5679 5678 5677 5676 5676
5764 5761 5760 5759 5757 5755 5753 5751 5749 5747 5745 5742 5740 5737 5734 5731 5727 5724 5721 5718 5715 5711 5708 5706 5703 5700 5697 5694 5691 5688 5686 5683 5681 5679 5677 5675 5673 5672 5670 5669 5669 5668 5668
5759 5757 5755 5754 5752 5750 5748 5746 5744 5742 5740 5738 5735 5732 5729 5726 5723 5719 5716 5713 5710 5706 5702 5700 5697 5694 5691 5688 5684 5682 5679 5676 5674 5672 5669 5667 5665 5663 5662 5661 5660 5660 5659
5755 5753 5751 5749 5747 5746 5744 5742 5740 5738 5736 5733 5731 5728 5724 5721 5718 5715 5711 5708 5705 5701 5698 5694 5691 5687 5684 5681 5677 5675 5672 5669 5667 5664 5662 5660 5658 5656 5655 5653 5652 5651 5651
5751 5749 5747 5745 5743 5741 5739 5737 5736 5734 5732 5729 5727 5723 5720 5717 5713 5710 5707 5703 5699 5696 5693 5689 5685 5681 5677 5674 5671 5668 5665 5663 5660 5658 5655 5653 5651 5649 5647 5645 5644 5643 5643
5748 5746 5744 5742 5740 5738 5736 5734 5732 5730 5728 5725 5722 5719 5716 5712 5709 5705 5702 5698 5694 5691 5687 5684 5679 5675 5671 5667 5664 5661 5658 5656 5653 5651 5649 5646 5644 5641 5639 5638 5636 5635 5634
5746 5744 5741 5739 5737 5735 5733 5731 5729 5726 5724 5721 5718 5715 5712 5708 5705 5701 5697 5693 5689 5686 5682 5678 5673 5669 5664 5661 5658 5655 5652 5649 5646 5644 5641 5639 5636 5634 5632 5630 5629 5628 5627
5744 5741 5739 5737 5735 5733 5730 5728 5725 5723 5720 5717 5714 5711 5708 5704 5701 5697 5693 5689 5685 5680 5676 5672 5667 5663 5659 5655 5652 5648 5645 5642 5639 5636 5633 5631 5629 5626 5624 5622 5621 5620 5619
5742 5740 5738 5736 5733 5731 5728 5725 5723 5720 5717 5714 5711 5707 5704 5700 5696 5692 5688 5684 5680 5675 5671 5666 5662 5658 5654 5649 5645 5642 5638 5635 5632 5629 5626 5623 5621 5618 5617 5615 5614 5613 5612
5740 5738 5736 5734 5731 5729 5726 5723 5720 5717 5714 5711 5707 5704 5700 5696 5692 5688 5683 5679 5674 5670 5666 5661 5657 5652 5648 5644 5639 5635 5632 5628 5625 5622 5619 5616 5614 5611 5609 5608 5607 5606 5605
5738 5736 5734 5732 5729 5726 5723 5720 5717 5714 5711 5708 5704 5701 5697 5692 5688 5683 5679 5674 5670 5665 5661 5656 5652 5647 5642 5638 5633 5629 5626 5622 5618 5615 5613 5610 5608 5605 5603 5601 5600 5599 5598
5736 5734 5732 5730 5727 5724 5721 5718 5715 5712 5708 5705 5701 5697 5693 5688 5684 5679 5675 5670 5665 5660 5656 5651 5646 5641 5636 5632 5628 5624 5620 5616 5613 5610 5607 5604 5601 5599 5597 5595 5594 5592 5591
5734 5732 5729 5727 5724 5721 5718 5715 5712 5709 5706 5702 5698 5694 5689 5685 5680 5676 5671 5666 5661 5656 5651 5646 5641 5636 5631 5626 5622 5618 5614 5610 5607 5604 5601 5598 5596 5594 5592 5590 5588 5586 5585
5732 5730 5727 5724 5721 5718 5715 5712 5709 5706 5703 5699 5695 5690 5686 5682 5677 5672 5667 5662 5657 5652 5646 5641 5636 5631 5626 5622 5617 5613 5609 5605 5602 5599 5596 5593 5591 5588 5586 5584 5582 5580 5579
5729 5727 5724 5722 5719 5716 5713 5710 5707 5703 5700 5696 5692 5687 5683 5678 5673 5668 5663 5658 5653 5648 5642 5637 5632 5627 5622 5618 5613 5609 5605 5601 5597 5594 5591 5588 5585 5583 5581 5578 5576 5574 5573
5727 5724 5722 5719 5716 5714 5711 5708 5705 5702 5698 5694 5689 5684 5680 5675 5670 5665 5660 5655 5649 5644 5639 5633 5628 5623 5618 5614 5609 5605 5601 5596 5592 5589 5586 5583 5580 5577 5575 5573 5570 5569 5567
5724 5722 5719 5716 5714 5711 5708 5705 5702 5699 5695 5691 5687 5682 5677 5672 5667 5662 5657 5652 5647 5641 5636 5630 5624 5619 5614 5610 5605 5601 5597 5592 5588 5585 5581 5578 5575 5572 5570 5567 5565 5563 5561
5721 5719 5717 5714 5712 5709 5706 5703 5700 5696 5693 5689 5684 5680 5675 5670 5664 5659 5654 5649 5643 5638 5632 5627 5621 5616 5611 5606 5602 5597 5593 5588 5584 5580 5577 5573 5570 5567 5564 5562 5560 5557 5555
5719 5717 5715 5712 5709 5707 5704 5700 5697 5694 5690 5686 5682 5677 5672 5667 5662 5656 5651 5645 5640 5634 5629 5624 5618 5613 5608 5603 5598 5594 5589 5585 5580 5576 5572 5569 5565 5562 5559 5557 5554 5552 5550
5716 5714 5712 5709 5707 5704 5701 5698 5695 5691 5687 5683 5679 5674 5669 5664 5659 5653 5648 5642 5637 5631 5626 5621 5615 5610 5605 5600 5595 5590 5585 5580 5576 5572 5568 5564 5561 5558 5555 5552 5549 5547 5545
5713 5712 5709 5707 5704 5702 5699 5696 5692 5688 5685 5680 5676 5671 5666 5661 5656 5650 5645 5639 5633 5628 5622 5617 5612 5607 5602 5597 5592 5587 5582 5577 5572 5568 5564 5560 5556 5553 5550 5547 5545 5542 5539
5711 5709 5706 5704 5702 5699 5696 5693 5689 5685 5681 5677 5673 5668 5663 5658 5653 5647 5642 5636 5630 5625 5620 5615 5610 5605 5599 5594 5589 5584 5579 5574 5569 5564 5560 5556 5552 5549 5546 5543 5540 5538 5535
5707 5705 5703 5701 5699 5696 5693 5690 5686 5682 5678 5674 5670 5665 5660 5655 5650 5644 5639 5633 5628 5622 5617 5612 5607 5602 5597 5592 5586 5581 5576 5571 5566 5561 5557 5553 5549 5546 5542 5539 5536 5533 5530
5704 5702 5700 5698 5696 5693 5690 5687 5683 5680 5675 5671 5667 5662 5657 5652 5647 5641 5636 5631 5625 5620 5615 5610 5605 5600 5594 5589 5584 5579 5573 5568 5563 5558 5554 5550 5546 5542 5539 5535 5532 5529 5526
5701 5699 5697 5695 5693 5690 5687 5684 5680 5676 5672 5668 5664 5659 5654 5649 5644 5638 5633 5628 5623 5618 5613 5608 5603 5598 5592 5587 5582 5576 5571 5565 5560 5556 5551 5547 5542 5539 5535 5531 5528 5524 5521